When you browse on this site, cookies collect data to enhance your experience and personalize the content and advertising you see.
Visit our Privacy Policy to learn more. By continuing to use the site, you agree to this use of cookies and data.
  • In Austria
  • List of Countries
  • For 7 days
  • Water Temperature
  • Satellite Maps
  • Weather Map
  • News
  • Weather Widgets
  • user-avatar
    Login

    Hourly Weather Saurimo

    Today, 21 July, Sunday

    Time Temperature Precipitation Wind Pressure Humidity
    00:00 +17°C° 0 mm 2 mps 671 mmHg 30%
    01:00 +16°C° 0 mm 2 mps 671 mmHg 33%
    02:00 +15°C° 0 mm 2 mps 671 mmHg 34%
    03:00 +15°C° 0 mm 2 mps 671 mmHg 34%
    04:00 +14°C° 0 mm 2 mps 671 mmHg 35%
    05:00 +15°C° 0 mm 2 mps 671 mmHg 34%
    06:00 +16°C° 0 mm 3 mps 672 mmHg 32%
    07:00 +17°C° 0 mm 3 mps 673 mmHg 31%
    08:00 +21°C° 0 mm 3 mps 673 mmHg 26%
    09:00 +26°C° 0 mm 4 mps 674 mmHg 21%
    10:00 +30°C° 0 mm 4 mps 674 mmHg 16%
    11:00 +32°C° 0 mm 4 mps 674 mmHg 15%
    12:00 +33°C° 0 mm 3 mps 673 mmHg 14%
    13:00 +34°C° 0 mm 3 mps 673 mmHg 13%
    14:00 +34°C° 0 mm 3 mps 672 mmHg 13%
    15:00 +34°C° 0 mm 3 mps 672 mmHg 13%
    16:00 +34°C° 0 mm 2 mps 671 mmHg 13%
    17:00 +29°C° 0 mm 2 mps 671 mmHg 17%
    18:00 +26°C° 0 mm 2 mps 671 mmHg 20%
    19:00 +23°C° 0 mm 1 mps 670 mmHg 24%
    20:00 +21°C° 0 mm 2 mps 671 mmHg 25%
    21:00 +20°C° 0 mm 2 mps 671 mmHg 26%
    22:00 +19°C° 0 mm 2 mps 671 mmHg 27%
    23:00 +19°C° 0 mm 2 mps 671 mmHg 27%

    Tomorrow, 22 July, Monday

    Time Temperature Precipitation Wind Pressure Humidity
    00:00 +18°C° 0 mm 2 mps 670 mmHg 28%
    01:00 +17°C° 0 mm 2 mps 670 mmHg 28%
    02:00 +17°C° 0 mm 2 mps 670 mmHg 29%
    03:00 +16°C° 0 mm 2 mps 670 mmHg 29%
    04:00 +14°C° 0 mm 3 mps 670 mmHg 29%
    05:00 +16°C° 0 mm 3 mps 671 mmHg 28%
    06:00 +16°C° 0 mm 3 mps 671 mmHg 28%
    07:00 +17°C° 0 mm 3 mps 671 mmHg 27%
    08:00 +21°C° 0 mm 3 mps 672 mmHg 23%
    09:00 +25°C° 0 mm 4 mps 673 mmHg 20%
    10:00 +29°C° 0 mm 4 mps 674 mmHg 16%
    11:00 +32°C° 0 mm 4 mps 673 mmHg 14%
    12:00 +33°C° 0 mm 3 mps 673 mmHg 13%
    13:00 +35°C° 0 mm 3 mps 672 mmHg 12%
    14:00 +35°C° 0 mm 3 mps 672 mmHg 12%
    15:00 +35°C° 0 mm 2 mps 671 mmHg 12%
    16:00 +34°C° 0 mm 2 mps 670 mmHg 11%
    17:00 +30°C° 0 mm 2 mps 670 mmHg 15%
    18:00 +27°C° 0 mm 2 mps 670 mmHg 18%
    19:00 +24°C° 0 mm 1 mps 670 mmHg 21%
    20:00 +23°C° 0 mm 2 mps 670 mmHg 22%
    21:00 +21°C° 0 mm 2 mps 670 mmHg 24%
    22:00 +20°C° 0 mm 2 mps 670 mmHg 26%
    23:00 +19°C° 0 mm 2 mps 670 mmHg 27%

    Day after tomorrow, 23 July, Tuesday

    Time Temperature Precipitation Wind Pressure Humidity
    00:00 +18°C° 0 mm 2 mps 670 mmHg 28%
    01:00 +18°C° 0 mm 2 mps 669 mmHg 29%
    02:00 +17°C° 0 mm 2 mps 669 mmHg 30%
    03:00 +16°C° 0 mm 2 mps 669 mmHg 31%
    04:00 +15°C° 0 mm 2 mps 669 mmHg 32%
    05:00 +16°C° 0 mm 2 mps 670 mmHg 31%
    06:00 +16°C° 0 mm 2 mps 671 mmHg 31%
    07:00 +17°C° 0 mm 2 mps 671 mmHg 31%
    08:00 +20°C° 0 mm 2 mps 672 mmHg 27%
    09:00 +25°C° 0 mm 3 mps 673 mmHg 23%
    10:00 +29°C° 0 mm 3 mps 674 mmHg 19%
    11:00 +31°C° 0 mm 2 mps 673 mmHg 17%
    12:00 +34°C° 0 mm 2 mps 673 mmHg 14%
    13:00 +36°C° 0 mm 1 mps 672 mmHg 12%
    14:00 +35°C° 0 mm 1 mps 672 mmHg 12%
    15:00 +35°C° 0 mm 1 mps 671 mmHg 12%
    16:00 +34°C° 0 mm 1 mps 671 mmHg 11%
    17:00 +31°C° 0 mm 1 mps 671 mmHg 15%
    18:00 +27°C° 0 mm 1 mps 670 mmHg 18%
    19:00 +24°C° 0 mm 1 mps 670 mmHg 21%
    20:00 +23°C° 0 mm 1 mps 670 mmHg 23%
    21:00 +22°C° 0 mm 1 mps 670 mmHg 24%
    22:00 +21°C° 0 mm 1 mps 670 mmHg 25%
    23:00 +20°C° 0 mm 1 mps 670 mmHg 26%

    24 July, Wednesday

    Time Temperature Precipitation Wind Pressure Humidity
    00:00 +18°C° 0 mm 2 mps 669 mmHg 28%
    01:00 +18°C° 0 mm 2 mps 669 mmHg 29%
    02:00 +17°C° 0 mm 2 mps 669 mmHg 29%
    03:00 +17°C° 0 mm 2 mps 669 mmHg 28%
    04:00 +17°C° 0 mm 2 mps 669 mmHg 28%
    05:00 +17°C° 0 mm 3 mps 670 mmHg 28%
    06:00 +18°C° 0 mm 3 mps 670 mmHg 28%
    07:00 +18°C° 0 mm 3 mps 671 mmHg 28%
    08:00 +22°C° 0 mm 3 mps 672 mmHg 23%
    09:00 +27°C° 0 mm 3 mps 672 mmHg 19%
    10:00 +32°C° 0 mm 4 mps 673 mmHg 14%
    11:00 +34°C° 0 mm 3 mps 673 mmHg 12%
    12:00 +36°C° 0 mm 2 mps 672 mmHg 10%
    13:00 +37°C° 0 mm 1 mps 672 mmHg 9%
    14:00 +37°C° 0 mm 2 mps 671 mmHg 9%
    15:00 +36°C° 0 mm 2 mps 671 mmHg 9%
    16:00 +36°C° 0 mm 2 mps 670 mmHg 9%
    17:00 +31°C° 0 mm 2 mps 670 mmHg 11%
    18:00 +28°C° 0 mm 2 mps 670 mmHg 14%
    19:00 +25°C° 0 mm 1 mps 669 mmHg 16%
    20:00 +24°C° 0 mm 2 mps 670 mmHg 17%
    21:00 +21°C° 0 mm 2 mps 670 mmHg 18%
    22:00 +20°C° 0 mm 2 mps 670 mmHg 19%
    23:00 +20°C° 0 mm 2 mps 670 mmHg 19%

    25 July, Thursday

    Time Temperature Precipitation Wind Pressure Humidity
    00:00 +19°C° 0 mm 2 mps 670 mmHg 19%
    01:00 +19°C° 0 mm 3 mps 670 mmHg 19%
    02:00 +18°C° 0 mm 3 mps 670 mmHg 19%
    03:00 +18°C° 0 mm 3 mps 670 mmHg 18%
    04:00 +17°C° 0 mm 3 mps 670 mmHg 18%
    05:00 +18°C° 0 mm 3 mps 671 mmHg 18%
    06:00 +19°C° 0 mm 3 mps 671 mmHg 17%
    07:00 +20°C° 0 mm 4 mps 672 mmHg 17%
    08:00 +23°C° 0 mm 4 mps 673 mmHg 15%
    09:00 +28°C° 0 mm 4 mps 673 mmHg 12%
    10:00 +33°C° 0 mm 4 mps 674 mmHg 10%
    11:00 +35°C° 0 mm 4 mps 673 mmHg 9%
    12:00 +36°C° 0 mm 3 mps 673 mmHg 8%
    13:00 +37°C° 0 mm 2 mps 672 mmHg 8%
    14:00 +37°C° 0 mm 2 mps 672 mmHg 8%
    15:00 +36°C° 0 mm 2 mps 671 mmHg 8%
    16:00 +36°C° 0 mm 2 mps 671 mmHg 8%
    17:00 +31°C° 0 mm 2 mps 670 mmHg 10%
    18:00 +28°C° 0 mm 2 mps 670 mmHg 13%
    19:00 +25°C° 0 mm 2 mps 670 mmHg 15%
    20:00 +23°C° 0 mm 2 mps 670 mmHg 16%
    21:00 +21°C° 0 mm 2 mps 670 mmHg 17%
    22:00 +20°C° 0 mm 2 mps 670 mmHg 18%
    23:00 +19°C° 0 mm 2 mps 670 mmHg 19%

    26 July, Friday

    Time Temperature Precipitation Wind Pressure Humidity
    00:00 +18°C° 0 mm 2 mps 670 mmHg 19%
    01:00 +18°C° 0 mm 2 mps 670 mmHg 19%
    02:00 +17°C° 0 mm 3 mps 670 mmHg 18%
    03:00 +17°C° 0 mm 3 mps 670 mmHg 17%
    04:00 +17°C° 0 mm 3 mps 670 mmHg 16%
    05:00 +17°C° 0 mm 3 mps 671 mmHg 16%
    06:00 +17°C° 0 mm 3 mps 671 mmHg 16%
    07:00 +18°C° 0 mm 4 mps 672 mmHg 16%
    08:00 +22°C° 0 mm 4 mps 672 mmHg 13%
    09:00 +26°C° 0 mm 4 mps 673 mmHg 11%
    10:00 +30°C° 0 mm 4 mps 674 mmHg 8%
    11:00 +33°C° 0 mm 4 mps 673 mmHg 8%
    12:00 +35°C° 0 mm 4 mps 673 mmHg 7%
    13:00 +36°C° 0 mm 3 mps 672 mmHg 6%
    14:00 +36°C° 0 mm 3 mps 672 mmHg 6%
    15:00 +35°C° 0 mm 3 mps 671 mmHg 6%
    16:00 +35°C° 0 mm 3 mps 671 mmHg 7%
    17:00 +30°C° 0 mm 3 mps 670 mmHg 9%
    18:00 +27°C° 0 mm 2 mps 670 mmHg 10%
    19:00 +23°C° 0 mm 2 mps 670 mmHg 12%
    20:00 +21°C° 0 mm 2 mps 670 mmHg 13%
    21:00 +20°C° 0 mm 2 mps 670 mmHg 14%
    22:00 +19°C° 0 mm 2 mps 670 mmHg 15%
    23:00 +18°C° 0 mm 2 mps 670 mmHg 16%
    Show more